This is the latest recevied weather packets stored in our database for station/object DH1FR-13. If no packets are shown the sender has not sent any weather packets the latest 10 day(s).
| Time | Temp. | Humidity | Pressure | Rain* | Wind** | Luminosity | Snow |
|---|---|---|---|---|---|---|---|
| 1787610000 | 12.78° C | 84% | 1020.2 hPa | 0 mm | 0 m/s | - | - |
| 1787609401 | 12.78° C | 82% | 1020.2 hPa | 0 mm | 0 m/s | - | - |
| 1787608801 | 12.78° C | 82% | 1020.2 hPa | 0 mm | 0 m/s | - | - |
| 1787608201 | 13.33° C | 81% | 1020.2 hPa | 0 mm | 0 m/s | - | - |
| 1787607600 | 13.89° C | 79% | 1020.5 hPa | 0 mm | 0 m/s | - | - |
| 1787607001 | 13.89° C | 78% | 1020.6 hPa | 0 mm | 0 m/s | - | - |
| 1787606400 | 13.89° C | 77% | 1020.4 hPa | 0 mm | 0 m/s | - | - |
| 1787605801 | 14.44° C | 76% | 1020.7 hPa | 0 mm | 0 m/s | - | - |
| 1787605200 | 14.44° C | 75% | 1020.9 hPa | 0 mm | 0 m/s | - | - |
| 1787604600 | 14.44° C | 75% | 1020.8 hPa | 0 mm | 0 m/s | - | - |
| 1787604001 | 13.89° C | 78% | 1021 hPa | 0 mm | 0 m/s | - | - |
| 1787603400 | 14.44° C | 77% | 1020.9 hPa | 0 mm | 0 m/s | - | - |
| 1787602801 | 14.44° C | 75% | 1020.9 hPa | 0 mm | 0 m/s | - | - |
| 1787602201 | 15° C | 73% | 1021 hPa | 0 mm | 0 m/s | - | - |
| 1787601601 | 15.56° C | 71% | 1021 hPa | 0 mm | 0 m/s | - | - |
| 1787601000 | 16.11° C | 70% | 1020.9 hPa | 0 mm | 0 m/s | - | - |
| 1787600400 | 16.67° C | 67% | 1021 hPa | 0 mm | 0 m/s | - | - |
| 1787599801 | 16.67° C | 66% | 1020.8 hPa | 0 mm | 0 m/s | - | - |
| 1787599202 | 17.22° C | 64% | 1021 hPa | 0 mm | 0 m/s | - | - |
| 1787598600 | 17.22° C | 63% | 1020.7 hPa | 0 mm | 0 m/s | - | - |
| 1787598001 | 17.78° C | 62% | 1020.8 hPa | 0 mm | 0 m/s | - | - |
| 1787597401 | 17.78° C | 61% | 1020.6 hPa | 0 mm | 0 m/s | - | - |
| 1787596800 | 18.33° C | 61% | 1020.7 hPa | 0 mm | 0 m/s | - | - |
| 1787596200 | 18.33° C | 60% | 1020.8 hPa | 0 mm | 0 m/s | - | - |
| 1787595600 | 18.33° C | 60% | 1021 hPa | 0 mm | 0 m/s | - | - |
* Rain latest hour (hover to see other rain measurements)
** Current wind speed in m/s (hover to see current wind gust speed)